Tracking 20232 objects as of 20-Jan-2020
HD Live streaming from Space Station
objects crossing your sky now

FLOCK 3P 49

Track FLOCK 3P 49 now!
10-day predictions
FLOCK 3P 49 is classified as:


NORAD ID: 42001
Int'l Code: 2017-008BF
Perigee: 488.4 km
Apogee: 501.5 km
Inclination: 97.4 °
Period: 94.4 minutes
Semi major axis: 6865 km
RCS: Unknown
Launch date: February 15, 2017
Source: United States (US)
Launch site: SRIHARIKOTA (SRI)
aabbcc
Your satellite tracking list
Your tracking list is empty




NASA's NSSDC Master Catalog

Two Line Element Set (TLE):
1 42001U 17008BF  20020.44014932 +.00001203 +00000-0 +49564-4 0  9992
2 42001 097.3840 090.2035 0009537 116.0189 244.2032 15.25994215162705
Source of the keplerian elements: AFSPC